| time (UTC) | temp F | wind direction | speed MPH | gust MPH | rain 1hr in | rain 24hr in | rain mn in | humidity % | barometer mb |
| 20260831190151 | 82 | 27 | 1.0 | 2.0 | 0.00 | 0.00 | 0.00 | 33 | 1011.4 |
| 20260831185646 | 80 | 337 | 2.0 | 2.0 | 0.00 | 0.00 | 0.00 | 34 | 1011.3 |
| 20260831185142 | 80 | 258 | 2.0 | 2.0 | 0.00 | 0.00 | 0.00 | 34 | 1011.2 |
| 20260831184641 | 80 | 234 | 3.0 | 4.0 | 0.00 | 0.00 | 0.00 | 34 | 1011.5 |
| 20260831184137 | 80 | 255 | 2.0 | 4.0 | 0.00 | 0.00 | 0.00 | 35 | 1011.7 |
| 20260831183637 | 80 | 271 | 2.0 | 2.0 | 0.00 | 0.00 | 0.00 | 35 | 1011.5 |
| 20260831183136 | 79 | 250 | 2.0 | 4.0 | 0.00 | 0.00 | 0.00 | 35 | 1011.3 |
| 20260831182635 | 80 | 234 | 0.0 | 1.0 | 0.00 | 0.00 | 0.00 | 36 | 1011.6 |
| 20260831182131 | 79 | 254 | 4.0 | 4.0 | 0.00 | 0.00 | 0.00 | 35 | 1011.5 |
| 20260831181626 | 79 | 19 | 1.0 | 2.0 | 0.00 | 0.00 | 0.00 | 36 | 1011.4 |
| 20260831181125 | 80 | 244 | 2.0 | 2.0 | 0.00 | 0.00 | 0.00 | 35 | 1011.6 |
| 20260831180621 | 78 | 218 | 1.0 | 1.0 | 0.00 | 0.00 | 0.00 | 38 | 1011.4 |
| 20260831180116 | 78 | 264 | 1.0 | 1.0 | 0.00 | 0.00 | 0.00 | 37 | 1011.5 |
| 20260831175610 | 77 | 9 | 1.0 | 1.0 | 0.00 | 0.00 | 0.00 | 38 | 1011.7 |
| 20260831175108 | 77 | 74 | 1.0 | 1.0 | 0.00 | 0.00 | 0.00 | 38 | 1011.7 |
| 20260831174607 | 76 | 127 | 1.0 | 2.0 | 0.00 | 0.00 | 0.00 | 40 | 1011.5 |
| 20260831174102 | 77 | 283 | 2.0 | 2.0 | 0.00 | 0.00 | 0.00 | 40 | 1011.3 |
| 20260831173600 | 76 | 339 | 1.0 | 1.0 | 0.00 | 0.00 | 0.00 | 42 | 1011.5 |
| 20260831173057 | 76 | 38 | 0.0 | 1.0 | 0.00 | 0.00 | 0.00 | 42 | 1011.2 |
| 20260831172551 | 75 | 236 | 2.0 | 2.0 | 0.00 | 0.00 | 0.00 | 42 | 1011.6 |
| 20260831172051 | 74 | 258 | 1.0 | 1.0 | 0.00 | 0.00 | 0.00 | 43 | 1011.4 |
| 20260831171547 | 75 | 221 | 3.0 | 4.0 | 0.00 | 0.00 | 0.00 | 43 | 1011.3 |
| 20260831171044 | 75 | 248 | 2.0 | 2.0 | 0.00 | 0.00 | 0.00 | 44 | 1011.6 |
| 20260831170539 | 74 | 11 | 1.0 | 1.0 | 0.00 | 0.00 | 0.00 | 44 | 1011.4 |
| 20260831170037 | 73 | 39 | 2.0 | 4.0 | 0.00 | 0.00 | 0.00 | 47 | 1011.4 |
| 20260831165537 | 73 | 233 | 2.0 | 2.0 | 0.00 | 0.00 | 0.00 | 48 | 1011.4 |
| 20260831165034 | 72 | 69 | 2.0 | 2.0 | 0.00 | 0.00 | 0.00 | 49 | 1011.3 |
| 20260831164530 | 71 | 344 | 1.0 | 2.0 | 0.00 | 0.00 | 0.00 | 50 | 1011.3 |
| 20260831164025 | 71 | 263 | 2.0 | 2.0 | 0.00 | 0.00 | 0.00 | 51 | 1011.3 |
| 20260831163520 | 71 | 37 | 0.0 | 1.0 | 0.00 | 0.00 | 0.00 | 51 | 1011.3 |
| 20260831163015 | 71 | 41 | 0.0 | 1.0 | 0.00 | 0.00 | 0.00 | 50 | 1011.1 |
| 20260831162514 | 70 | 30 | 1.0 | 1.0 | 0.00 | 0.00 | 0.00 | 52 | 1011.5 |
| 20260831162012 | 69 | 229 | 1.0 | 1.0 | 0.00 | 0.00 | 0.00 | 53 | 1011.3 |
| 20260831161509 | 69 | 222 | 1.0 | 1.0 | 0.00 | 0.00 | 0.00 | 54 | 1011.1 |
| 20260831161005 | 69 | 265 | 1.0 | 1.0 | 0.00 | 0.00 | 0.00 | 55 | 1011.3 |
| 20260831160504 | 68 | 230 | 3.0 | 4.0 | 0.00 | 0.00 | 0.00 | 55 | 1011.3 |
| 20260831155959 | 68 | 267 | 3.0 | 4.0 | 0.00 | 0.00 | 0.00 | 55 | 1011.1 |
| 20260831155454 | 68 | 279 | 2.0 | 2.0 | 0.00 | 0.00 | 0.00 | 56 | 1011.1 |
| 20260831154949 | 67 | 252 | 1.0 | 2.0 | 0.00 | 0.00 | 0.00 | 56 | 1011.1 |
| 20260831154446 | 67 | 248 | 2.0 | 2.0 | 0.00 | 0.00 | 0.00 | 56 | 1011.0 |
| 20260831153944 | 67 | 283 | 2.0 | 2.0 | 0.00 | 0.00 | 0.00 | 56 | 1011.1 |
| 20260831153440 | 67 | 231 | 2.0 | 2.0 | 0.00 | 0.00 | 0.00 | 57 | 1011.0 |
| 20260831152937 | 66 | 286 | 1.0 | 1.0 | 0.00 | 0.00 | 0.00 | 59 | 1010.8 |
| 20260831152432 | 66 | 275 | 2.0 | 2.0 | 0.00 | 0.00 | 0.00 | 61 | 1011.0 |
| 20260831151927 | 65 | 29 | 0.0 | 1.0 | 0.00 | 0.00 | 0.00 | 64 | 1010.8 |
| 20260831151426 | 65 | 303 | 1.0 | 2.0 | 0.00 | 0.00 | 0.00 | 64 | 1010.8 |
| 20260831150921 | 64 | 283 | 1.0 | 1.0 | 0.00 | 0.00 | 0.00 | 65 | 1011.0 |
| 20260831150411 | 64 | 295 | 0.0 | 1.0 | 0.00 | 0.00 | 0.00 | 66 | 1011.0 |
| 20260831145910 | 64 | 309 | 1.0 | 2.0 | 0.00 | 0.00 | 0.00 | 65 | 1010.9 |
| 20260831145406 | 65 | 311 | 1.0 | 1.0 | 0.00 | 0.00 | 0.00 | 64 | 1010.6 |
| 20260831144902 | 64 | 326 | 0.0 | 0.0 | 0.00 | 0.00 | 0.00 | 65 | 1010.8 |
| 20260831144358 | 64 | 19 | 0.0 | 0.0 | 0.00 | 0.00 | 0.00 | 65 | 1010.5 |
| 20260831143853 | 64 | 20 | 0.0 | 0.0 | 0.00 | 0.00 | 0.00 | 64 | 1010.5 |
| 20260831143348 | 63 | 20 | 0.0 | 0.0 | 0.00 | 0.00 | 0.00 | 64 | 1010.6 |
| 20260831142843 | 62 | 351 | 0.0 | 0.0 | 0.00 | 0.00 | 0.00 | 68 | 1010.4 |
| 20260831142338 | 61 | 351 | 0.0 | 0.0 | 0.00 | 0.00 | 0.00 | 69 | 1010.4 |
| 20260831141838 | 61 | 346 | 0.0 | 1.0 | 0.00 | 0.00 | 0.00 | 71 | 1010.4 |
| 20260831141333 | 61 | 37 | 0.0 | 0.0 | 0.00 | 0.00 | 0.00 | 71 | 1010.3 |
| 20260831140828 | 60 | 38 | 0.0 | 0.0 | 0.00 | 0.00 | 0.00 | 70 | 1010.4 |
| 20260831140322 | 60 | 39 | 0.0 | 0.0 | 0.00 | 0.00 | 0.00 | 70 | 1010.1 |
| 20260831135820 | 60 | 39 | 0.0 | 1.0 | 0.00 | 0.00 | 0.00 | 70 | 1010.1 |
| 20260831135316 | 59 | 39 | 0.0 | 0.0 | 0.00 | 0.00 | 0.00 | 70 | 1009.8 |
| 20260831134811 | 59 | 39 | 0.0 | 0.0 | 0.00 | 0.00 | 0.00 | 70 | 1010.0 |
| 20260831134308 | 59 | 39 | 0.0 | 0.0 | 0.00 | 0.00 | 0.00 | 70 | 1009.7 |
| 20260831133807 | 59 | 39 | 0.0 | 0.0 | 0.00 | 0.00 | 0.00 | 72 | 1009.9 |
| 20260831133306 | 59 | 39 | 0.0 | 0.0 | 0.00 | 0.00 | 0.00 | 72 | 1009.5 |
| 20260831132802 | 59 | 39 | 0.0 | 0.0 | 0.00 | 0.00 | 0.00 | 72 | 1009.5 |
| 20260831132256 | 59 | 39 | 0.0 | 0.0 | 0.00 | 0.00 | 0.00 | 71 | 1009.4 |
| 20260831131750 | 59 | 39 | 0.0 | 0.0 | 0.00 | 0.00 | 0.00 | 71 | 1009.5 |
| 20260831131247 | 59 | 39 | 0.0 | 0.0 | 0.00 | 0.00 | 0.00 | 71 | 1009.6 |
| 20260831130742 | 59 | 39 | 0.0 | 0.0 | 0.00 | 0.00 | 0.00 | 71 | 1009.7 |
| 20260831130237 | 59 | 39 | 0.0 | 0.0 | 0.00 | 0.00 | 0.00 | 71 | 1009.6 |
| 20260831125736 | 59 | 39 | 0.0 | 0.0 | 0.00 | 0.00 | 0.00 | 71 | 1009.7 |
| 20260831125232 | 59 | 39 | 0.0 | 0.0 | 0.00 | 0.00 | 0.00 | 71 | 1009.8 |
| 20260831124726 | 60 | 39 | 0.0 | 0.0 | 0.00 | 0.00 | 0.00 | 71 | 1009.6 |
| 20260831124223 | 60 | 39 | 0.0 | 0.0 | 0.00 | 0.00 | 0.00 | 71 | 1009.4 |
| 20260831123722 | 60 | 39 | 0.0 | 0.0 | 0.00 | 0.00 | 0.00 | 71 | 1009.7 |
| 20260831123221 | 60 | 39 | 0.0 | 0.0 | 0.00 | 0.00 | 0.00 | 71 | 1009.6 |
| 20260831122716 | 59 | 40 | 0.0 | 0.0 | 0.00 | 0.00 | 0.00 | 72 | 1009.5 |
| 20260831122212 | 59 | 39 | 0.0 | 0.0 | 0.00 | 0.00 | 0.00 | 71 | 1009.7 |
| 20260831121711 | 59 | 39 | 0.0 | 0.0 | 0.00 | 0.00 | 0.00 | 71 | 1009.6 |
| 20260831121208 | 59 | 39 | 0.0 | 0.0 | 0.00 | 0.00 | 0.00 | 70 | 1009.5 |
| 20260831120703 | 59 | 39 | 0.0 | 0.0 | 0.00 | 0.00 | 0.00 | 70 | 1009.4 |
| 20260831120157 | 59 | 39 | 0.0 | 0.0 | 0.00 | 0.00 | 0.00 | 70 | 1009.3 |
| 20260831115653 | 59 | 40 | 0.0 | 0.0 | 0.00 | 0.00 | 0.00 | 69 | 1009.3 |
| 20260831115149 | 60 | 40 | 0.0 | 0.0 | 0.00 | 0.00 | 0.00 | 69 | 1009.4 |
| 20260831114648 | 60 | 61 | 1.0 | 1.0 | 0.00 | 0.00 | 0.00 | 69 | 1009.3 |
| 20260831114142 | 60 | 46 | 0.0 | 1.0 | 0.00 | 0.00 | 0.00 | 68 | 1009.3 |
| 20260831113642 | 60 | 34 | 0.0 | 0.0 | 0.00 | 0.00 | 0.00 | 68 | 1009.2 |
| 20260831113138 | 60 | 43 | 0.0 | 0.0 | 0.00 | 0.00 | 0.00 | 68 | 1009.5 |
| 20260831112636 | 60 | 45 | 0.0 | 0.0 | 0.00 | 0.00 | 0.00 | 68 | 1009.1 |
| 20260831112132 | 60 | 47 | 0.0 | 1.0 | 0.00 | 0.00 | 0.00 | 69 | 1009.4 |
| 20260831111628 | 60 | 30 | 1.0 | 1.0 | 0.00 | 0.00 | 0.00 | 70 | 1009.4 |
| 20260831111124 | 60 | 37 | 0.0 | 0.0 | 0.00 | 0.00 | 0.00 | 70 | 1009.5 |
| 20260831110619 | 60 | 31 | 0.0 | 0.0 | 0.00 | 0.00 | 0.00 | 70 | 1009.5 |
| 20260831110114 | 60 | 31 | 0.0 | 0.0 | 0.00 | 0.00 | 0.00 | 70 | 1009.3 |
| 20260831105613 | 61 | 32 | 0.0 | 0.0 | 0.00 | 0.00 | 0.00 | 69 | 1009.4 |
| 20260831105108 | 61 | 46 | 0.0 | 0.0 | 0.00 | 0.00 | 0.00 | 69 | 1009.5 |
| 20260831104604 | 61 | 22 | 0.0 | 0.0 | 0.00 | 0.00 | 0.00 | 68 | 1009.5 |
| 20260831104100 | 62 | 17 | 0.0 | 0.0 | 0.00 | 0.00 | 0.00 | 68 | 1009.5 |
| 20260831103554 | 62 | 20 | 0.0 | 0.0 | 0.00 | 0.00 | 0.00 | 66 | 1009.5 |
| 20260831103051 | 62 | 348 | 0.0 | 0.0 | 0.00 | 0.00 | 0.00 | 65 | 1009.5 |
| 20260831102544 | 62 | 287 | 0.0 | 1.0 | 0.00 | 0.00 | 0.00 | 66 | 1009.3 |
| 20260831102040 | 63 | 300 | 1.0 | 1.0 | 0.00 | 0.00 | 0.00 | 67 | 1009.3 |
| 20260831101534 | 62 | 307 | 0.0 | 1.0 | 0.00 | 0.00 | 0.00 | 66 | 1009.4 |
| 20260831101031 | 63 | 65 | 0.0 | 0.0 | 0.00 | 0.00 | 0.00 | 63 | 1009.4 |
| 20260831100526 | 63 | 61 | 0.0 | 0.0 | 0.00 | 0.00 | 0.00 | 62 | 1009.2 |
| 20260831100022 | 63 | 301 | 0.0 | 1.0 | 0.00 | 0.00 | 0.00 | 61 | 1009.3 |
| 20260831095520 | 63 | 297 | 1.0 | 1.0 | 0.00 | 0.00 | 0.00 | 63 | 1009.2 |
| 20260831095015 | 62 | 292 | 1.0 | 1.0 | 0.00 | 0.00 | 0.00 | 65 | 1009.2 |
| 20260831094512 | 62 | 298 | 1.0 | 1.0 | 0.00 | 0.00 | 0.00 | 64 | 1009.4 |
| 20260831094007 | 62 | 19 | 0.0 | 0.0 | 0.00 | 0.00 | 0.00 | 62 | 1009.1 |
| 20260831093507 | 62 | 19 | 0.0 | 0.0 | 0.00 | 0.00 | 0.00 | 63 | 1009.3 |
| 20260831093004 | 62 | 17 | 0.0 | 0.0 | 0.00 | 0.00 | 0.00 | 62 | 1009.2 |
| 20260831092459 | 62 | 17 | 0.0 | 0.0 | 0.00 | 0.00 | 0.00 | 62 | 1009.1 |
| 20260831091954 | 63 | 341 | 0.0 | 0.0 | 0.00 | 0.00 | 0.00 | 62 | 1009.2 |
| 20260831091449 | 63 | 32 | 0.0 | 0.0 | 0.00 | 0.00 | 0.00 | 62 | 1009.3 |
| 20260831090944 | 63 | 33 | 0.0 | 0.0 | 0.00 | 0.00 | 0.00 | 62 | 1009.4 |
| 20260831090440 | 63 | 329 | 0.0 | 0.0 | 0.00 | 0.00 | 0.00 | 60 | 1009.3 |
| 20260831085936 | 63 | 22 | 0.0 | 0.0 | 0.00 | 0.00 | 0.00 | 60 | 1009.2 |
| 20260831085431 | 63 | 21 | 0.0 | 0.0 | 0.00 | 0.00 | 0.00 | 59 | 1009.2 |
| 20260831084931 | 64 | 47 | 0.0 | 0.0 | 0.00 | 0.00 | 0.00 | 58 | 1009.1 |
| 20260831084427 | 64 | 47 | 0.0 | 0.0 | 0.00 | 0.00 | 0.00 | 58 | 1009.2 |
| 20260831083924 | 64 | 47 | 0.0 | 0.0 | 0.00 | 0.00 | 0.00 | 57 | 1009.1 |
| 20260831083419 | 65 | 47 | 0.0 | 0.0 | 0.00 | 0.00 | 0.00 | 58 | 1009.1 |
| 20260831082918 | 65 | 27 | 0.0 | 0.0 | 0.00 | 0.00 | 0.00 | 57 | 1009.3 |
| 20260831082418 | 66 | 20 | 0.0 | 0.0 | 0.00 | 0.00 | 0.00 | 57 | 1008.9 |
| 20260831081913 | 66 | 288 | 0.0 | 1.0 | 0.00 | 0.00 | 0.00 | 56 | 1009.1 |
| 20260831081409 | 66 | 24 | 0.0 | 0.0 | 0.00 | 0.00 | 0.00 | 56 | 1009.1 |
| 20260831080905 | 67 | 6 | 0.0 | 1.0 | 0.00 | 0.00 | 0.00 | 55 | 1009.2 |
| 20260831080400 | 67 | 264 | 0.0 | 1.0 | 0.00 | 0.00 | 0.00 | 54 | 1009.2 |
| 20260831075855 | 67 | 276 | 1.0 | 1.0 | 0.00 | 0.00 | 0.00 | 54 | 1009.4 |
| 20260831075350 | 67 | 266 | 4.0 | 5.0 | 0.00 | 0.00 | 0.00 | 53 | 1009.2 |
| 20260831074845 | 67 | 278 | 1.0 | 1.0 | 0.00 | 0.00 | 0.00 | 53 | 1009.2 |
| 20260831074344 | 68 | 262 | 1.0 | 1.0 | 0.00 | 0.00 | 0.00 | 52 | 1009.2 |
| 20260831073840 | 68 | 264 | 1.0 | 1.0 | 0.00 | 0.00 | 0.00 | 52 | 1009.3 |
| 20260831073339 | 68 | 236 | 1.0 | 1.0 | 0.00 | 0.00 | 0.00 | 51 | 1008.9 |
| 20260831072834 | 68 | 283 | 1.0 | 1.0 | 0.00 | 0.00 | 0.00 | 50 | 1009.3 |
| 20260831072330 | 68 | 241 | 2.0 | 2.0 | 0.00 | 0.00 | 0.00 | 50 | 1009.3 |
| 20260831071826 | 69 | 237 | 3.0 | 5.0 | 0.00 | 0.00 | 0.00 | 49 | 1009.4 |
| 20260831071324 | 69 | 252 | 3.0 | 4.0 | 0.00 | 0.00 | 0.00 | 49 | 1009.3 |
| 20260831070820 | 69 | 251 | 1.0 | 1.0 | 0.00 | 0.00 | 0.00 | 47 | 1009.4 |
| 20260831070319 | 70 | 252 | 2.0 | 2.0 | 0.00 | 0.00 | 0.00 | 47 | 1009.2 |
| 20260831065818 | 69 | 249 | 2.0 | 2.0 | 0.00 | 0.00 | 0.00 | 48 | 1009.4 |
| 20260831065316 | 69 | 264 | 2.0 | 2.0 | 0.00 | 0.00 | 0.00 | 49 | 1009.5 |
| 20260831064811 | 69 | 252 | 2.0 | 2.0 | 0.00 | 0.00 | 0.00 | 52 | 1009.4 |
| 20260831064306 | 70 | 294 | 0.0 | 1.0 | 0.00 | 0.00 | 0.00 | 51 | 1009.2 |
| 20260831063802 | 70 | 283 | 0.0 | 1.0 | 0.00 | 0.00 | 0.00 | 50 | 1009.3 |
| 20260831063258 | 70 | 273 | 1.0 | 1.0 | 0.00 | 0.00 | 0.00 | 49 | 1009.5 |
| 20260831062757 | 70 | 240 | 2.0 | 2.0 | 0.00 | 0.00 | 0.00 | 48 | 1009.2 |
| 20260831062252 | 70 | 269 | 1.0 | 1.0 | 0.00 | 0.00 | 0.00 | 49 | 1009.5 |
| 20260831061751 | 70 | 277 | 1.0 | 1.0 | 0.00 | 0.00 | 0.00 | 48 | 1009.4 |
| 20260831061246 | 70 | 281 | 0.0 | 0.0 | 0.00 | 0.00 | 0.00 | 48 | 1009.3 |
| 20260831060742 | 71 | 280 | 1.0 | 2.0 | 0.00 | 0.00 | 0.00 | 48 | 1009.3 |
| 20260831060242 | 71 | 248 | 2.0 | 2.0 | 0.00 | 0.00 | 0.00 | 47 | 1009.4 |
| 20260831055741 | 71 | 156 | 1.0 | 1.0 | 0.00 | 0.00 | 0.00 | 47 | 1009.3 |
| 20260831055241 | 71 | 286 | 2.0 | 4.0 | 0.00 | 0.00 | 0.00 | 47 | 1009.3 |
| 20260831054737 | 71 | 326 | 0.0 | 0.0 | 0.00 | 0.00 | 0.00 | 47 | 1009.4 |
| 20260831054232 | 71 | 228 | 1.0 | 1.0 | 0.00 | 0.00 | 0.00 | 46 | 1009.4 |
| 20260831053731 | 72 | 238 | 2.0 | 2.0 | 0.00 | 0.00 | 0.00 | 46 | 1009.3 |
| 20260831053229 | 72 | 253 | 3.0 | 4.0 | 0.00 | 0.00 | 0.00 | 45 | 1009.2 |
| 20260831052724 | 72 | 300 | 4.0 | 5.0 | 0.00 | 0.00 | 0.00 | 44 | 1009.2 |
| 20260831052223 | 72 | 263 | 3.0 | 4.0 | 0.00 | 0.00 | 0.00 | 46 | 1009.3 |
| 20260831051721 | 72 | 266 | 2.0 | 2.0 | 0.00 | 0.00 | 0.00 | 45 | 1009.1 |
| 20260831051220 | 73 | 46 | 0.0 | 0.0 | 0.00 | 0.00 | 0.00 | 45 | 1009.3 |
| 20260831050715 | 73 | 21 | 0.0 | 0.0 | 0.00 | 0.00 | 0.00 | 44 | 1009.1 |
| 20260831050214 | 73 | 30 | 0.0 | 0.0 | 0.00 | 0.00 | 0.00 | 44 | 1009.1 |
| 20260831045708 | 74 | 19 | 0.0 | 0.0 | 0.00 | 0.00 | 0.00 | 44 | 1009.2 |
| 20260831045203 | 75 | 28 | 0.0 | 0.0 | 0.00 | 0.00 | 0.00 | 43 | 1009.1 |
| 20260831044658 | 75 | 271 | 1.0 | 1.0 | 0.00 | 0.00 | 0.00 | 43 | 1009.3 |
| 20260831044153 | 75 | 26 | 0.0 | 0.0 | 0.00 | 0.00 | 0.00 | 41 | 1009.2 |
| 20260831043649 | 76 | 352 | 0.0 | 0.0 | 0.00 | 0.00 | 0.00 | 40 | 1009.2 |
| 20260831043144 | 76 | 308 | 0.0 | 1.0 | 0.00 | 0.00 | 0.00 | 38 | 1009.1 |
| 20260831042643 | 77 | 342 | 0.0 | 0.0 | 0.00 | 0.00 | 0.00 | 37 | 1009.0 |
| 20260831042138 | 77 | 26 | 0.0 | 0.0 | 0.00 | 0.00 | 0.00 | 39 | 1008.9 |
| 20260831041633 | 78 | 257 | 1.0 | 1.0 | 0.00 | 0.00 | 0.00 | 38 | 1008.7 |
| 20260831041132 | 79 | 254 | 0.0 | 0.0 | 0.00 | 0.00 | 0.00 | 37 | 1008.8 |
| 20260831040628 | 79 | 262 | 1.0 | 1.0 | 0.00 | 0.00 | 0.00 | 36 | 1008.9 |
| 20260831040121 | 78 | 290 | 3.0 | 5.0 | 0.00 | 0.00 | 0.00 | 37 | 1008.6 |
| 20260831035620 | 78 | 260 | 1.0 | 1.0 | 0.00 | 0.00 | 0.00 | 38 | 1008.5 |
| 20260831035114 | 78 | 346 | 0.0 | 0.0 | 0.00 | 0.00 | 0.00 | 40 | 1008.7 |
| 20260831034614 | 77 | 282 | 1.0 | 1.0 | 0.00 | 0.00 | 0.00 | 41 | 1008.6 |
| 20260831034109 | 77 | 3 | 0.0 | 0.0 | 0.00 | 0.00 | 0.00 | 41 | 1008.7 |
| 20260831033604 | 78 | 4 | 0.0 | 0.0 | 0.00 | 0.00 | 0.00 | 40 | 1008.6 |
| 20260831033059 | 77 | 48 | 0.0 | 0.0 | 0.00 | 0.00 | 0.00 | 40 | 1008.4 |
| 20260831032559 | 77 | 50 | 0.0 | 0.0 | 0.00 | 0.00 | 0.00 | 42 | 1008.6 |
| 20260831032055 | 78 | 50 | 0.0 | 0.0 | 0.00 | 0.00 | 0.00 | 42 | 1008.5 |
| 20260831031554 | 78 | 49 | 0.0 | 0.0 | 0.00 | 0.00 | 0.00 | 41 | 1008.2 |
| 20260831031053 | 79 | 34 | 0.0 | 0.0 | 0.00 | 0.00 | 0.00 | 39 | 1008.5 |
| 20260831030553 | 79 | 34 | 0.0 | 0.0 | 0.00 | 0.00 | 0.00 | 39 | 1008.3 |
| 20260831030052 | 79 | 55 | 0.0 | 0.0 | 0.00 | 0.00 | 0.00 | 39 | 1008.2 |
| 20260831025550 | 80 | 55 | 0.0 | 0.0 | 0.00 | 0.00 | 0.00 | 39 | 1008.3 |
| 20260831025046 | 80 | 55 | 0.0 | 0.0 | 0.00 | 0.00 | 0.00 | 39 | 1008.2 |
| 20260831024542 | 81 | 63 | 0.0 | 0.0 | 0.00 | 0.00 | 0.00 | 40 | 1008.1 |
| 20260831024040 | 82 | 68 | 0.0 | 0.0 | 0.00 | 0.00 | 0.00 | 40 | 1008.1 |
| 20260831023539 | 82 | 69 | 0.0 | 0.0 | 0.00 | 0.00 | 0.00 | 40 | 1008.2 |
| 20260831023033 | 83 | 128 | 0.0 | 0.0 | 0.00 | 0.00 | 0.00 | 38 | 1008.0 |
| 20260831022533 | 83 | 128 | 0.0 | 0.0 | 0.00 | 0.00 | 0.00 | 38 | 1008.0 |
| 20260831022028 | 84 | 128 | 0.0 | 0.0 | 0.00 | 0.00 | 0.00 | 36 | 1008.0 |
| 20260831021527 | 85 | 127 | 0.0 | 0.0 | 0.00 | 0.00 | 0.00 | 36 | 1008.0 |
| 20260831021023 | 86 | 32 | 0.0 | 0.0 | 0.00 | 0.00 | 0.00 | 33 | 1008.0 |
| 20260831020518 | 86 | 32 | 0.0 | 0.0 | 0.00 | 0.00 | 0.00 | 32 | 1008.0 |
| 20260831020013 | 87 | 32 | 0.0 | 0.0 | 0.00 | 0.00 | 0.00 | 32 | 1007.9 |
| 20260831015509 | 87 | 54 | 0.0 | 0.0 | 0.00 | 0.00 | 0.00 | 31 | 1008.0 |
| 20260831015004 | 87 | 191 | 0.0 | 0.0 | 0.00 | 0.00 | 0.00 | 32 | 1008.0 |
| 20260831014458 | 89 | 138 | 0.0 | 1.0 | 0.00 | 0.00 | 0.00 | 31 | 1007.8 |
| 20260831013954 | 90 | 205 | 1.0 | 1.0 | 0.00 | 0.00 | 0.00 | 28 | 1007.9 |
| 20260831013450 | 91 | 39 | 0.0 | 0.0 | 0.00 | 0.00 | 0.00 | 27 | 1008.0 |
| 20260831012949 | 90 | 44 | 0.0 | 0.0 | 0.00 | 0.00 | 0.00 | 27 | 1008.0 |
| 20260831012445 | 91 | 1 | 1.0 | 1.0 | 0.00 | 0.00 | 0.00 | 25 | 1008.0 |
| 20260831011944 | 91 | 26 | 0.0 | 0.0 | 0.00 | 0.00 | 0.00 | 27 | 1008.1 |
| 20260831011439 | 91 | 18 | 0.0 | 0.0 | 0.00 | 0.00 | 0.00 | 25 | 1008.3 |
| 20260831010936 | 92 | 260 | 0.0 | 1.0 | 0.00 | 0.00 | 0.00 | 24 | 1008.3 |
| 20260831010435 | 92 | 70 | 0.0 | 0.0 | 0.00 | 0.00 | 0.00 | 27 | 1008.0 |
| 20260831005931 | 93 | 27 | 0.0 | 0.0 | 0.00 | 0.00 | 0.00 | 26 | 1008.3 |
| 20260831005427 | 93 | 31 | 0.0 | 1.0 | 0.00 | 0.00 | 0.00 | 25 | 1008.2 |
| 20260831004926 | 93 | 38 | 0.0 | 1.0 | 0.00 | 0.00 | 0.00 | 24 | 1008.2 |
| 20260831004423 | 93 | 8 | 0.0 | 0.0 | 0.00 | 0.00 | 0.00 | 23 | 1008.3 |
| 20260831003918 | 94 | 323 | 0.0 | 0.0 | 0.00 | 0.00 | 0.00 | 23 | 1008.3 |
| 20260831003414 | 94 | 197 | 0.0 | 1.0 | 0.00 | 0.00 | 0.00 | 24 | 1008.4 |
| 20260831002914 | 94 | 86 | 0.0 | 0.0 | 0.00 | 0.00 | 0.00 | 24 | 1008.2 |
| 20260831002413 | 93 | 54 | 1.0 | 1.0 | 0.00 | 0.00 | 0.00 | 24 | 1008.5 |
| 20260831001908 | 94 | 47 | 0.0 | 0.0 | 0.00 | 0.00 | 0.00 | 25 | 1008.2 |
| 20260831001403 | 95 | 243 | 1.0 | 1.0 | 0.00 | 0.00 | 0.00 | 23 | 1008.4 |
| 20260831000900 | 94 | 245 | 1.0 | 1.0 | 0.00 | 0.00 | 0.00 | 23 | 1008.5 |
| 20260831000356 | 95 | 338 | 1.0 | 1.0 | 0.00 | 0.00 | 0.00 | 22 | 1008.5 |
| 20260830235854 | 95 | 348 | 1.0 | 1.0 | 0.00 | 0.00 | 0.00 | 22 | 1008.3 |
| 20260830235348 | 95 | 240 | 3.0 | 4.0 | 0.00 | 0.00 | 0.00 | 21 | 1008.3 |
| 20260830234844 | 94 | 14 | 0.0 | 0.0 | 0.00 | 0.00 | 0.00 | 19 | 1008.5 |
| 20260830234340 | 94 | 16 | 0.0 | 1.0 | 0.00 | 0.00 | 0.00 | 20 | 1008.4 |
| 20260830233835 | 94 | 261 | 3.0 | 4.0 | 0.00 | 0.00 | 0.00 | 20 | 1008.6 |
| 20260830233331 | 93 | 258 | 2.0 | 2.0 | 0.00 | 0.00 | 0.00 | 20 | 1008.5 |
| 20260830232826 | 94 | 260 | 3.0 | 4.0 | 0.00 | 0.00 | 0.00 | 21 | 1008.4 |
| 20260830232322 | 94 | 297 | 1.0 | 1.0 | 0.00 | 0.00 | 0.00 | 21 | 1008.7 |
| 20260830231819 | 94 | 316 | 0.0 | 1.0 | 0.00 | 0.00 | 0.00 | 22 | 1008.7 |
| 20260830231319 | 94 | 189 | 1.0 | 1.0 | 0.00 | 0.00 | 0.00 | 21 | 1008.6 |
| 20260830230813 | 94 | 327 | 1.0 | 2.0 | 0.00 | 0.00 | 0.00 | 20 | 1008.8 |
| 20260830230308 | 95 | 227 | 1.0 | 2.0 | 0.00 | 0.00 | 0.00 | 22 | 1008.7 |
| 20260830225808 | 94 | 264 | 0.0 | 0.0 | 0.00 | 0.00 | 0.00 | 20 | 1009.1 |
| 20260830225305 | 93 | 22 | 1.0 | 1.0 | 0.00 | 0.00 | 0.00 | 20 | 1008.9 |
| 20260830224802 | 94 | 292 | 1.0 | 1.0 | 0.00 | 0.00 | 0.00 | 19 | 1009.0 |
| 20260830224257 | 93 | 189 | 1.0 | 1.0 | 0.00 | 0.00 | 0.00 | 21 | 1009.0 |
| 20260830223754 | 94 | 94 | 0.0 | 1.0 | 0.00 | 0.00 | 0.00 | 22 | 1009.2 |
| 20260830223250 | 93 | 302 | 2.0 | 2.0 | 0.00 | 0.00 | 0.00 | 23 | 1009.3 |
| 20260830222744 | 91 | 228 | 2.0 | 2.0 | 0.00 | 0.00 | 0.00 | 22 | 1009.5 |
| 20260830222239 | 91 | 234 | 3.0 | 4.0 | 0.00 | 0.00 | 0.00 | 22 | 1009.4 |
| 20260830221734 | 92 | 267 | 2.0 | 2.0 | 0.00 | 0.00 | 0.00 | 21 | 1009.6 |
| 20260830221232 | 93 | 269 | 1.0 | 1.0 | 0.00 | 0.00 | 0.00 | 21 | 1009.4 |
| 20260830220727 | 93 | 249 | 1.0 | 1.0 | 0.00 | 0.00 | 0.00 | 20 | 1009.4 |
| 20260830220225 | 92 | 357 | 1.0 | 1.0 | 0.00 | 0.00 | 0.00 | 23 | 1009.9 |
| 20260830215724 | 92 | 343 | 0.0 | 1.0 | 0.00 | 0.00 | 0.00 | 22 | 1009.8 |
| 20260830215219 | 91 | 298 | 2.0 | 4.0 | 0.00 | 0.00 | 0.00 | 22 | 1009.8 |
| 20260830214714 | 92 | 41 | 1.0 | 2.0 | 0.00 | 0.00 | 0.00 | 21 | 1009.9 |
| 20260830214209 | 91 | 211 | 0.0 | 1.0 | 0.00 | 0.00 | 0.00 | 20 | 1010.1 |
| 20260830213708 | 89 | 248 | 3.0 | 4.0 | 0.00 | 0.00 | 0.00 | 21 | 1010.1 |
| 20260830213203 | 91 | 238 | 2.0 | 2.0 | 0.00 | 0.00 | 0.00 | 21 | 1010.3 |
| 20260830212659 | 90 | 313 | 1.0 | 1.0 | 0.00 | 0.00 | 0.00 | 21 | 1010.2 |
| 20260830212155 | 90 | 226 | 2.0 | 2.0 | 0.00 | 0.00 | 0.00 | 24 | 1010.2 |
| 20260830211654 | 90 | 243 | 3.0 | 5.0 | 0.00 | 0.00 | 0.00 | 24 | 1010.5 |
| 20260830211153 | 90 | 62 | 1.0 | 2.0 | 0.00 | 0.00 | 0.00 | 23 | 1010.2 |
| 20260830210649 | 90 | 237 | 5.0 | 7.0 | 0.00 | 0.00 | 0.00 | 23 | 1010.4 |
| 20260830210148 | 89 | 254 | 2.0 | 2.0 | 0.00 | 0.00 | 0.00 | 24 | 1010.5 |
| 20260830205646 | 88 | 268 | 2.0 | 4.0 | 0.00 | 0.00 | 0.00 | 24 | 1010.6 |
| 20260830205141 | 88 | 262 | 4.0 | 7.0 | 0.00 | 0.00 | 0.00 | 24 | 1010.5 |
| 20260830204641 | 88 | 304 | 1.0 | 1.0 | 0.00 | 0.00 | 0.00 | 25 | 1010.9 |
| 20260830204140 | 88 | 248 | 2.0 | 4.0 | 0.00 | 0.00 | 0.00 | 26 | 1010.8 |
| 20260830203636 | 88 | 326 | 1.0 | 2.0 | 0.00 | 0.00 | 0.00 | 25 | 1010.9 |
| 20260830203137 | 88 | 348 | 1.0 | 1.0 | 0.00 | 0.00 | 0.00 | 26 | 1010.8 |
| 20260830202636 | 86 | 239 | 3.0 | 4.0 | 0.00 | 0.00 | 0.00 | 27 | 1010.9 |
| 20260830202132 | 87 | 5 | 2.0 | 2.0 | 0.00 | 0.00 | 0.00 | 26 | 1010.6 |
| 20260830201631 | 87 | 244 | 2.0 | 2.0 | 0.00 | 0.00 | 0.00 | 27 | 1011.1 |
| 20260830201127 | 86 | 282 | 1.0 | 1.0 | 0.00 | 0.00 | 0.00 | 27 | 1011.0 |
| 20260830200622 | 86 | 276 | 1.0 | 1.0 | 0.00 | 0.00 | 0.00 | 28 | 1011.1 |
| 20260830200121 | 86 | 191 | 1.0 | 1.0 | 0.00 | 0.00 | 0.00 | 28 | 1011.1 |
| 20260830195617 | 86 | 349 | 1.0 | 2.0 | 0.00 | 0.00 | 0.00 | 27 | 1011.0 |
| 20260830195114 | 85 | 347 | 2.0 | 2.0 | 0.00 | 0.00 | 0.00 | 28 | 1011.0 |
| 20260830194609 | 86 | 276 | 2.0 | 2.0 | 0.00 | 0.00 | 0.00 | 27 | 1011.2 |
| 20260830194108 | 85 | 263 | 2.0 | 2.0 | 0.00 | 0.00 | 0.00 | 29 | 1011.3 |
| 20260830193603 | 85 | 349 | 1.0 | 1.0 | 0.00 | 0.00 | 0.00 | 28 | 1011.3 |
| 20260830193058 | 84 | 293 | 1.0 | 1.0 | 0.00 | 0.00 | 0.00 | 30 | 1011.4 |
| 20260830192553 | 84 | 35 | 1.0 | 1.0 | 0.00 | 0.00 | 0.00 | 29 | 1011.3 |
| 20260830192053 | 84 | 343 | 1.0 | 1.0 | 0.00 | 0.00 | 0.00 | 29 | 1011.4 |
| 20260830191548 | 82 | 305 | 2.0 | 2.0 | 0.00 | 0.00 | 0.00 | 30 | 1011.6 |
| 20260830191044 | 83 | 328 | 1.0 | 1.0 | 0.00 | 0.00 | 0.00 | 30 | 1011.7 |
| 20260830190539 | 83 | 241 | 1.0 | 2.0 | 0.00 | 0.00 | 0.00 | 31 | 1011.9 |